TIANMU-1 06

Last updated on Mon Jun 22 2026 00:02:46 GMT+0000 (Coordinated Universal Time)

1 55976U 23039D 26172.50381902 .00013184 00000+0 25487-3 0 9990 2 55976 97.5229 346.8955 0004324 99.6322 260.5416 15.47896063181511
UTC large
Height (km)
Speed (km/s)
/
Latitude / Longitude
Inclination (degrees)
Orbital Period (minutes)
Azimuth
Elevation
Range (km)
Doppler Factor

Next 0 passes for location: London (51.5072 / 0.1276)

No passes found over London.
TIANMU-1 06